Location: Township of South Roscoe
(37.9570°N, 100.1180°W)
Time: 14:27:46
(UTC+00:00)

Cosmos 1346 Rocket - Pass Details

Date: 17 October 2021
Orbit: 529 x 547 km, 81.2° (Epoch: 03 December)

Event Time Altitude Azimuth Distance (km) Brightness Sun altitude
Rises 12:19:42 0° 203° (SSW) 2,693 6.2 -7.0°
Reaches altitude 10° 12:21:56 10° 211° (SSW) 1,808 5.2 -6.5°
Maximum altitude 12:25:43 41° 282° (WNW) 799 3.2 -5.8°
Drops below altitude 10° 12:29:32 10° 354° (N) 1,826 5.3 -5.1°
Sets 12:31:48 0° 2° (N) 2,724 6.3 -4.6°
